Ephrata, WA

4:55 AM PST on January 22, 2018 (GMT -0800)
Ephrata Municipal

Weather History for KEPH - September, 2013

Change the Weather History Date:

Tuesday, September 10, 2013

  Actual Average Record
Temperature  
Mean Temperature 75 °F 66 °F  
Max Temperature 92 °F 80 °F 99 °F (2011)
Min Temperature 58 °F 52 °F 44 °F (2003)
Degree Days  
Heating Degree Days 0 2  
Month to date heating degree days 6 15  
Since 1 July heating degree days 6 32  
Cooling Degree Days 10 3  
Month to date cooling degree days 75 39  
Year to date cooling degree days 999 733  
Growing Degree Days 24 (Base 50)    
Moisture  
Dew Point 48 °F    
Average Humidity 48    
Maximum Humidity 77    
Minimum Humidity 18    
Precipitation  
Precipitation 0.00 in 0.01 in 0.06 in (1966)
Month to date precipitation 0.21 0.10  
Year to date precipitation 4.45 4.76  
Sea Level Pressure  
Sea Level Pressure 29.94 in    
Wind  
Wind Speed 6 mph (North)    
Max Wind Speed 13 mph    
Max Gust Speed 15 mph    
Visibility 10 miles    
Events      
T = Trace of Precipitation, MM = Missing Value Source: NWS Daily Summary

Daily Weather History Graph

Daily Weather History Graph

Search for Another Location

Airport or City:

Trip Planner

Search our weather history database for the weather conditions in past years. The results will help you decide how hot, cold, wet, or windy it might be!

Date:

Astronomy

Sep. 10, 2013 Rise Set
Actual Time 6:29 AM PDT 7:19 PM PDT
Civil Twilight 5:58 AM PDT 7:50 PM PDT
Nautical Twilight 5:21 AM PDT 8:27 PM PDT
Astronomical Twilight 4:42 AM PDT 9:06 PM PDT
Moon 12:24 PM PDT (9/10) 10:01 PM PDT (9/10)
Length of Visible Light 13h 52m
Length of Day
12h 50m
Waxing Crescent, 29% of the Moon is Illuminated
Sep 10
Waxing Crescent
Sep 12
First Quarter
Sep 19
Full
Sep 26
Last Quarter
Oct 4
New

Hourly Weather History & Observations

Time (PDT) Temp. Dew Point Humidity Pressure Visibility Wind Dir Wind Speed Gust Speed Precip Events Conditions
12:53 AM 66.9 °F 48.9 °F 52% 29.91 in 10.0 mi NNW 4.6 mph - N/A   Clear
1:53 AM 69.1 °F 51.1 °F 53% 29.91 in 10.0 mi NW 8.1 mph - N/A   Clear
2:53 AM 61.0 °F 51.1 °F 70% 29.93 in 10.0 mi ENE 5.8 mph - N/A   Clear
3:53 AM 60.1 °F 51.1 °F 72% 29.94 in 10.0 mi NNE 4.6 mph - N/A   Clear
4:53 AM 59.0 °F 51.1 °F 75% 29.94 in 10.0 mi North 5.8 mph - N/A   Clear
5:53 AM 59.0 °F 50.0 °F 72% 29.95 in 10.0 mi North 3.5 mph - N/A   Clear
6:53 AM 57.9 °F 50.0 °F 75% 29.97 in 10.0 mi NE 5.8 mph - N/A   Clear
7:53 AM 64.9 °F 53.1 °F 65% 29.99 in 10.0 mi NNE 4.6 mph - N/A   Clear
8:53 AM 71.1 °F 53.1 °F 53% 30.00 in 10.0 mi NNE 5.8 mph - N/A   Clear
9:53 AM 75.0 °F 53.1 °F 46% 30.00 in 10.0 mi NNE 9.2 mph - N/A   Clear
10:53 AM 80.1 °F 51.1 °F 36% 29.99 in 10.0 mi Variable 6.9 mph - N/A   Clear
11:53 AM 82.9 °F 48.9 °F 31% 29.99 in 10.0 mi NNW 5.8 mph - N/A   Clear
12:53 PM 86.0 °F 48.0 °F 27% 29.96 in 10.0 mi Variable 3.5 mph - N/A   Clear
1:53 PM 87.1 °F 45.0 °F 23% 29.95 in 10.0 mi Calm Calm - N/A   Clear
2:53 PM 89.1 °F 43.0 °F 20% 29.94 in 10.0 mi NW 5.8 mph - N/A   Clear
3:53 PM 91.0 °F 43.0 °F 19% 29.92 in 10.0 mi North 6.9 mph - N/A   Clear
4:53 PM 91.0 °F 42.1 °F 18% 29.91 in 10.0 mi North 8.1 mph - N/A   Clear
5:53 PM 90.0 °F 42.1 °F 19% 29.90 in 10.0 mi NNE 6.9 mph - N/A   Clear
6:53 PM 88.0 °F 42.1 °F 20% 29.90 in 10.0 mi NNW 4.6 mph - N/A   Clear
7:53 PM 81.0 °F 46.0 °F 29% 29.91 in 10.0 mi NNW 10.4 mph - N/A   Clear
8:53 PM 78.1 °F 42.1 °F 28% 29.92 in 10.0 mi North 9.2 mph - N/A   Clear
9:53 PM 75.9 °F 44.1 °F 32% 29.93 in 10.0 mi NNW 8.1 mph - N/A   Clear
10:53 PM 75.0 °F 45.0 °F 34% 29.94 in 10.0 mi NW 5.8 mph - N/A   Clear
11:53 PM 75.0 °F 46.0 °F 36% 29.94 in 10.0 mi NNW 8.1 mph - N/A   Clear